Vorticity
10 8 8 4 9 10 8 8 33 -1 5 4 3 19 -9 13 -2 26 35 26 7 2 2 9 6 4 5 1 3 4 5 5
8 7 8 14 15 17 17 22 41 -14 1 9 -1 8 7 6 15 10 5 -1 -0 5 4 3 4 5 5 4 6 8 5 4
7 10 15 6 -3 29 38 44 57 17 -23 -2 -6 9 -1 14 11 10 -3 6 3 4 2 2 6 5 5 5 7 5 1 1
15 11 12 2 27 33 43 37 21 23 5 16 11 -4 -3 -3 13 7 1 4 3 -2 3 5 9 6 7 5 3 5 3 6
13 9 10 6 18 40 23 -6 37 9 -9 -2 -21 6 -1 8 15 14 7 3 1 1 2 3 3 6 4 5 6 4 6 5
11 10 10 1 27 21 18 -8 76 -16 2 9 5 6 10 16 19 14 2 2 -4 -0 0 1 4 8 7 7 9 3 8 6
7 12 19 3 27 23 -1 20 27 9 11 6 -7 5 7 13 10 9 2 2 -3 0 2 1 4 6 2 -3 11 3 4 2
5 13 18 10 3 30 4 7 21 -21 -26 11 18 -3 2 9 17 7 2 -4 3 0 5 1 3 6 1 4 4 4 -2 -5
12 11 18 13 -1 28 6 5 35 2 13 12 23 7 5 -2 15 3 9 5 0 -1 4 2 2 5 2 -7 -0 6 2 6
12 11 18 14 2 -0 5 10 11 -2 12 -40 7 -12 6 10 5 8 12 17 4 2 4 -3 2 -2 3 2 2 6 13 7
12 18 24 15 5 4 8 -1 36 8 -11 13 -16 4 -2 4 10 14 17 -3 -5 -3 5 1 2 2 8 3 3 4 6 9
13 20 22 11 10 7 2 0 16 37 7 14 16 1 11 2 10 5 19 6 4 -2 -3 5 1 5 6 5 3 1 6 5
16 16 17 12 10 8 8 11 -7 40 20 7 13 10 -7 3 -1 -0 2 16 7 -3 9 -3 12 3 2 0 -1 12 1 9
11 15 16 10 6 5 11 8 4 39 26 0 16 6 16 1 -8 -12 10 9 6 -4 -2 18 6 4 7 1 10 1 3 5
4 16 13 11 5 3 16 -0 33 34 22 17 9 7 -6 12 14 5 11 7 3 3 3 -7 26 12 -3 7 0 11 6 12
7 7 17 15 14 5 15 11 52 35 37 9 25 -2 -4 6 13 11 -7 8 -4 18 7 31 -11 16 9 2 15 11 14 18
10 6 6 15 15 18 12 10 -13 53 23 4 35 4 12 11 -0 11 6 12 5 -2 33 19 9 9 12 24 16 20 11 6
2 12 7 2 14 15 20 10 10 30 37 14 10 10 2 7 12 12 2 0 14 22 3 4 4 17 22 10 5 3 6 7
3 5 14 12 6 4 16 18 17 5 4 36 36 15 27 14 10 18 28 8 21 11 6 10 22 8 2 3 4 3 8 7
7 3 2 15 13 8 6 13 20 27 7 -4 7 34 4 3 10 7 6 8 13 35 20 8 7 4 6 9 6 4 5 8
Height
5754 5750 5748 5746 5743 5740 5741 5739 5720 5748 5766 5766 5766 5772 5773 5778 5782 5786 5788 5792 5796 5801 5806 5808 5810 5813 5815 5816 5817 5820 5820 5821
5747 5745 5742 5737 5735 5730 5726 5731 5741 5744 5758 5762 5767 5769 5771 5772 5778 5786 5790 5791 5796 5799 5804 5808 5809 5811 5813 5814 5815 5817 5817 5818
5741 5737 5735 5729 5722 5715 5702 5709 5718 5723 5746 5755 5760 5764 5767 5770 5776 5783 5788 5789 5793 5799 5803 5805 5806 5808 5810 5811 5813 5815 5816 5816
5733 5729 5727 5722 5714 5702 5694 5699 5712 5719 5736 5749 5753 5758 5764 5770 5774 5779 5784 5789 5793 5797 5800 5801 5802 5805 5806 5808 5810 5812 5813 5815
5729 5721 5721 5718 5710 5702 5700 5709 5714 5722 5734 5743 5748 5756 5764 5768 5771 5776 5782 5789 5791 5795 5796 5798 5799 5802 5803 5805 5807 5810 5809 5811
5726 5721 5717 5715 5709 5704 5704 5707 5706 5719 5729 5732 5748 5753 5763 5765 5767 5773 5779 5785 5788 5791 5792 5794 5796 5800 5800 5802 5803 5808 5806 5809
5723 5718 5715 5713 5710 5707 5709 5712 5715 5720 5728 5732 5744 5752 5757 5761 5763 5769 5775 5781 5784 5787 5790 5792 5794 5795 5797 5799 5800 5804 5802 5806
5721 5717 5712 5712 5710 5708 5711 5715 5721 5728 5731 5736 5744 5749 5753 5758 5760 5765 5771 5776 5780 5784 5787 5789 5790 5793 5795 5796 5797 5798 5801 5802
5717 5714 5709 5710 5711 5710 5711 5716 5721 5724 5729 5732 5740 5746 5749 5754 5757 5762 5767 5771 5775 5780 5783 5786 5788 5789 5792 5792 5792 5793 5796 5797
5713 5710 5708 5707 5709 5711 5712 5717 5723 5725 5728 5732 5738 5741 5744 5748 5753 5758 5763 5767 5771 5776 5779 5782 5784 5786 5787 5788 5788 5789 5788 5792
5709 5708 5705 5705 5706 5711 5712 5714 5718 5723 5724 5730 5734 5736 5740 5744 5750 5753 5759 5763 5767 5772 5774 5777 5780 5782 5783 5784 5784 5784 5783 5785
5707 5703 5703 5702 5704 5707 5709 5711 5713 5715 5718 5723 5727 5732 5737 5741 5745 5748 5755 5760 5761 5767 5769 5772 5775 5777 5778 5778 5778 5778 5778 5780
5705 5703 5701 5698 5698 5702 5704 5707 5708 5707 5709 5716 5722 5726 5731 5736 5740 5747 5750 5756 5756 5762 5764 5767 5770 5771 5773 5772 5773 5774 5774 5774
5703 5700 5698 5697 5696 5697 5697 5697 5699 5697 5700 5710 5717 5722 5727 5732 5738 5742 5745 5752 5755 5756 5760 5761 5764 5765 5766 5768 5767 5769 5767 5768
5702 5699 5697 5695 5694 5695 5693 5687 5684 5685 5691 5699 5709 5716 5722 5726 5731 5736 5739 5744 5749 5751 5754 5755 5757 5758 5759 5763 5762 5763 5761 5762
5700 5697 5695 5693 5692 5692 5693 5687 5681 5682 5686 5693 5702 5710 5717 5722 5726 5730 5736 5738 5742 5745 5747 5748 5751 5751 5753 5754 5755 5755 5755 5757
5696 5695 5693 5691 5689 5686 5687 5685 5682 5682 5684 5690 5698 5706 5712 5718 5722 5726 5730 5733 5735 5737 5738 5742 5745 5746 5747 5748 5748 5748 5749 5752
5693 5693 5692 5691 5688 5685 5682 5682 5685 5684 5687 5691 5696 5703 5708 5713 5717 5721 5723 5726 5728 5730 5732 5735 5738 5740 5740 5741 5742 5743 5743 5746
5691 5690 5690 5690 5688 5686 5684 5681 5682 5686 5688 5691 5693 5697 5703 5707 5711 5714 5718 5720 5721 5724 5727 5729 5732 5734 5734 5735 5735 5735 5737 5739
5689 5688 5688 5688 5687 5687 5685 5683 5682 5683 5687 5691 5693 5696 5700 5702 5706 5710 5712 5714 5716 5719 5720 5724 5728 5728 5729 5729 5729 5728 5730 5731